User: anonymous   Login
Location: Newark
(41.9000°N, 12.4833°E)
Time: 02:47:11
(UTC+00:00)
Language:

NOAA 19 - Orbit

View from above orbital plane
View from above orbital plane
View from above satellite
View from above satellite

Ground track
Ground track

The orbit data is extracted from the following two-line orbital elements,

1 33591U 09005A   19323.62852977  .00000031  00000-0  42295-4 0  9999
2 33591  99.1905 318.5559 0013270 309.8243  50.1759 14.12383734555631
Epoch (UTC): 19 November 2019 15:05:04
Eccentricity: 0.0013270
inclination: 99.1905°
perigee height: 841 km
apogee height: 861 km
right ascension of ascending node: 318.5559°
argument of perigee: 309.8243°
revolutions per day: 14.12383734
mean anomaly at epoch: 50.1759°
orbit number at epoch: 55563

The dashed part of the orbit path shows where the satellite is in the earth's shadow,  

DLR